Preview of NWS' New Version of Forecast
This preview is not operational and should not be used for support decisions.

Regional Weather Roundup (RWR)

Issued by National Weather Service (NWS)

                            
000
ASUS43 KDMX 172006
RWRIA 

WEATHER ROUNDUP FOR IOWA
NATIONAL WEATHER SERVICE DES MOINES IA
300 PM CDT WED APR 17 2019

NOTE: "FAIR" INDICATES FEW OR NO CLOUDS BELOW 12,000 FEET WITH NO
SIGNIFICANT WEATHER AND/OR OBSTRUCTIONS TO VISIBILITY.

* - THESE STATIONS ARE NOT NWS STATIONS...THUS NOT UNDER NWS
QUALITY CONTROL.  THEY ALSO DO NOT REPORT WEATHER SUCH 
AS PRECIPITATION OR FOG.  

IAZ001>003-012>014-020>022-031>034-043>046-172100-
   NORTHWEST IOWA
  
CITY           SKY/WX    TMP DP  RH WIND       PRES   REMARKS
CARROLL *      CLOUDY    59  57  94 W21G28    29.57R                  
CHEROKEE *     CLOUDY    51  51  99 W6        29.60S                  
DENISON *      CLOUDY    55  52  88 W15G23    29.63R                  
LE MARS *      CLOUDY    50  50 100 W18G26    29.64R                  
SHELDON *      CLOUDY    52  52 100 NW23G29   29.56F                  
SIOUX CITY     CLOUDY    54  46  74 NW28G38   29.64R                  
SPENCER        LGT RAIN  55  52  89 W21G26    29.57R FOG              
STORM LAKE *   DRIZZLE   52  52 100 W22G29    29.56R                  
$$
 
IAZ055>058-069>071-079>083-090>094-172100-
   SOUTHWEST IOWA
  
CITY           SKY/WX    TMP DP  RH WIND       PRES   REMARKS
ATLANTIC *     CLOUDY    66  57  72 W25G32    29.59R                  
AUDUBON *      CLOUDY    64  61  88 CALM      29.60F                  
CLARINDA *     PTSUNNY   75  59  57 SW16G23   29.60F                  
COUNCIL BLFS * PTSUNNY   64  54  68 NW13      29.63F                  
CRESTON *      PTSUNNY   73  59  60 SW20G26   29.58F                  
HARLAN  *      CLOUDY    59  55  88 W21G30    29.61S                  
LAMONI         LGT RAIN  72  58  61 SW21G29   29.61F                  
RED OAK *      CLOUDY    68  59  73 NW22G32   29.60R                  
SHENANDOAH *   CLOUDY    70  57  64 NW25G36   29.60R                  
$$
 
IAZ047>049-059>061-072>074-084-172100-
   CENTRAL IOWA
  
CITY           SKY/WX    TMP DP  RH WIND       PRES   REMARKS
AMES           CLOUDY    73  58  59 SW22G30   29.53F                  
ANKENY *         N/A     73  59  60 MISG      29.56F                  
BOONE *        CLOUDY    73  59  60 SW20      29.53F                  
CHARITON *     PTSUNNY   73  59  60 SW18G25   29.59F                  
DES MOINES     CLOUDY    76  58  53 SW21G28   29.55F                  
GRINNELL*      CLOUDY    74  58  57 S20G28    29.59F                  
KNOXVILLE *    CLOUDY    73  59  60 SW18G26   29.58S                  
MARSHALLTOWN   CLOUDY    70  59  68 SW18G25   29.55F                  
NEWTON *       CLOUDY    73  59  60 SW20G28   29.57F                  
PELLA *        MOSUNNY   73  56  55 SW15G22   29.60S                  
PERRY *        LGT RAIN  73  55  54 SW15G25   29.55S                  
$$
 
IAZ004>006-015-016-023>025-035-036-172100-
   NORTH CENTRAL IOWA
  
CITY           SKY/WX    TMP DP  RH WIND       PRES   REMARKS
ALGONA *       CLOUDY    66  64  94 SW15      29.50F                  
CLARION *      CLOUDY    70  63  78 SW16      29.52F                  
ESTHERVILLE    LGT RAIN  51  50  96 N10       29.52F FOG              
MASON CITY     RAIN      62  60  93 SW13G23   29.53F FOG              
FOREST CITY *  CLOUDY    63  61  94 S7        29.51F                  
IOWA FALLS *   CLOUDY    69  58  69 S13       29.55F                  
$$

IAZ007>011-017>019-026>030-037>042-050>054-066-172100-
   NORTHEAST IOWA
  
CITY           SKY/WX    TMP DP  RH WIND       PRES   REMARKS
CEDAR RAPIDS   CLOUDY    77  58  51 S21G30    29.56F                  
CHARLES CITY * CLOUDY    64  59  82 S10       29.54F                  
CLINTON *      CLOUDY    74  58  57 S21       29.62F                  
DECORAH *      CLOUDY    57  54  88 SE7       29.56F FOG              
DUBUQUE        CLOUDY    67  54  63 SE15G23   29.60F                  
MONTICELLO *   PTSUNNY   73  57  56 S12       29.58F                  
OELWEIN *      PTSUNNY   70  59  68 S18       29.56F                  
WATERLOO       CLOUDY    71  56  58 S15G22    29.54F                  
$$
 
IAZ064-065-067-068-078-172100-
   EAST CENTRAL IOWA
  
CITY           SKY/WX    TMP DP  RH WIND       PRES   REMARKS
DAVENPORT      CLOUDY    75  56  51 S13G23    29.63F                  
IOWA CITY      PTSUNNY   76  57  51 S20G26    29.59F                  
MT. PLEASANT * CLOUDY    77  59  53 SW20      29.62F                  
MUSCATINE *    CLOUDY    75  57  53 S17       29.61F                  
QUAD CITIES    PTSUNNY   78  57  48 S14G25    29.60F                  
$$
 
IAZ062-063-075>077-085>089-095>099-172100-
   SOUTHEAST IOWA
  
CITY           SKY/WX    TMP DP  RH WIND       PRES   REMARKS
BURLINGTON     CLOUDY    75  58  55 S13G28    29.63F                  
FAIRFIELD *    CLOUDY    77  57  50 SW22G31   29.59F                  
FORT MADISON * PTSUNNY   75  57  53 SW12G20   29.64F                  
KEOKUK *       CLOUDY    77  59  53 S16G23    29.63S                  
OSKALOOSA *    CLOUDY    75  56  52 SW21      29.59F                  
CENTERVILLE *  FAIR      73  59  60 S23       29.63F                  
OTTUMWA        CLOUDY    77  58  51 SW23G35   29.59F                  
WASHINGTON *   CLOUDY    77  59  53 S21G26    29.60F                  
$$

ABBREVIATIONS USED IN REMARKS
   TC - TEMPERATURES IN CELSIUS
  WCI - WIND CHILL INDEX
   HX - HEAT INDEX
  VSB - VISIBILITY  
$$